ECNRS LEPA-LEPA

Flight info

Callsign ECNRS
Flight time 0h 51m
Altitude 1000
Route DCT
Aircraft PA28/L-VGD/A

Departure

Time 2026-04-30 19:12
Airport Palma de Mallorca Airport (LEPA)

Arrival

Time 2026-04-30 20:04
Airport Palma de Mallorca Airport (LEPA)
Time Latitude Longitude Altitude Speed Heading
2026-04-30 19:00 39.54306 2.72830 34 ft 0 kts 61°
2026-04-30 19:04 39.54285 2.72854 34 ft 6 kts 197°
2026-04-30 19:05 39.54232 2.72955 34 ft 17 kts 57°
2026-04-30 19:05 39.54403 2.73305 32 ft 28 kts 58°
2026-04-30 19:06 39.54605 2.73737 30 ft 27 kts 59°
2026-04-30 19:06 39.54703 2.73941 29 ft 20 kts 56°
2026-04-30 19:06 39.54896 2.74072 27 ft 20 kts 329°
2026-04-30 19:07 39.55194 2.73836 28 ft 25 kts 321°
2026-04-30 19:07 39.55340 2.73721 28 ft 27 kts 329°
2026-04-30 19:08 39.55615 2.73504 29 ft 16 kts 341°
2026-04-30 19:08 39.55764 2.73735 30 ft 20 kts 58°
2026-04-30 19:08 39.55844 2.73898 31 ft 22 kts 58°
2026-04-30 19:09 39.56008 2.74226 33 ft 19 kts 39°
2026-04-30 19:09 39.56126 2.74331 34 ft 19 kts 30°
2026-04-30 19:09 39.56145 2.74347 34 ft 0 kts 36°
2026-04-30 19:10 39.56144 2.74347 34 ft 0 kts 36°
2026-04-30 19:10 39.56182 2.74371 35 ft 11 kts 11°
2026-04-30 19:11 39.56240 2.74337 35 ft 7 kts 324°
2026-04-30 19:11 39.56242 2.74286 34 ft 0 kts 235°
2026-04-30 19:11 39.56129 2.74052 33 ft 65 kts 238°
2026-04-30 19:12 39.55854 2.73447 263 ft 80 kts 238°
2026-04-30 19:12 39.55563 2.72849 591 ft 80 kts 242°
2026-04-30 19:12 39.55674 2.72158 873 ft 91 kts 323°
2026-04-30 19:13 39.57203 2.72053 1044 ft 135 kts 355°
2026-04-30 19:13 39.58646 2.70448 1030 ft 153 kts 284°
2026-04-30 19:13 39.58834 2.69089 1038 ft 154 kts 279°
2026-04-30 19:14 39.59016 2.67718 1042 ft 155 kts 280°
2026-04-30 19:14 39.59205 2.66334 1044 ft 156 kts 280°
2026-04-30 19:14 39.59232 2.64968 1027 ft 152 kts 249°
2026-04-30 19:14 39.58665 2.63822 1030 ft 151 kts 232°
2026-04-30 19:15 39.58069 2.62709 1030 ft 150 kts 239°
2026-04-30 19:15 39.57117 2.60348 1217 ft 140 kts 245°
2026-04-30 19:15 39.56817 2.59172 1456 ft 135 kts 258°
2026-04-30 19:16 39.56667 2.57969 1707 ft 136 kts 260°
2026-04-30 19:16 39.56516 2.56768 1943 ft 134 kts 259°
2026-04-30 19:16 39.56146 2.54336 2022 ft 144 kts 243°
2026-04-30 19:17 39.55647 2.53209 2025 ft 144 kts 238°
2026-04-30 19:17 39.54670 2.50852 2019 ft 153 kts 260°
2026-04-30 19:17 39.54584 2.49473 2011 ft 155 kts 267°
2026-04-30 19:18 39.54460 2.47027 1655 ft 169 kts 266°
2026-04-30 19:18 39.53819 2.45274 1329 ft 169 kts 213°
2026-04-30 19:18 39.52714 2.44827 1095 ft 166 kts 188°
2026-04-30 19:19 39.51657 2.45000 995 ft 142 kts 155°
2026-04-30 19:19 39.50835 2.45543 992 ft 126 kts 151°
2026-04-30 19:19 39.49359 2.46556 960 ft 118 kts 151°
2026-04-30 19:20 39.48618 2.47066 834 ft 121 kts 150°
2026-04-30 19:20 39.48122 2.47915 689 ft 120 kts 120°
2026-04-30 19:20 39.46946 2.49409 597 ft 115 kts 121°
2026-04-30 19:21 39.46887 2.50405 591 ft 114 kts 75°
2026-04-30 19:21 39.47866 2.51991 591 ft 113 kts 42°
2026-04-30 19:22 39.49280 2.52885 594 ft 117 kts 19°
2026-04-30 19:22 39.51009 2.51975 591 ft 116 kts 257°
2026-04-30 19:23 39.49522 2.52295 591 ft 114 kts 84°
2026-04-30 19:24 39.50728 2.52999 594 ft 113 kts 327°
2026-04-30 19:24 39.51073 2.52123 593 ft 114 kts 267°
2026-04-30 19:24 39.49965 2.51306 593 ft 109 kts 149°
2026-04-30 19:25 39.50787 2.52972 850 ft 113 kts
2026-04-30 19:26 39.52358 2.51824 912 ft 143 kts 329°
2026-04-30 19:26 39.54077 2.50413 910 ft 149 kts 329°
2026-04-30 19:26 39.54918 2.49720 1082 ft 136 kts 329°
2026-04-30 19:27 39.56422 2.48451 1570 ft 124 kts 329°
2026-04-30 19:27 39.57861 2.47152 2068 ft 128 kts 328°
2026-04-30 19:28 39.58658 2.46711 2311 ft 124 kts 355°
2026-04-30 19:28 39.60443 2.46564 2309 ft 123 kts 10°
2026-04-30 19:29 39.60872 2.48216 1719 ft 125 kts 141°
2026-04-30 19:29 39.60053 2.48220 1514 ft 128 kts 208°
2026-04-30 19:30 39.61043 2.47058 1270 ft 101 kts 70°
2026-04-30 19:30 39.60653 2.46611 1006 ft 112 kts 335°
2026-04-30 19:31 39.60504 2.47081 846 ft 109 kts 244°
2026-04-30 19:31 39.60800 2.46460 1113 ft 85 kts
2026-04-30 19:31 39.60631 2.47364 967 ft 98 kts 228°
2026-04-30 19:32 39.60946 2.46901 946 ft 95 kts 37°
2026-04-30 19:32 39.60698 2.47316 842 ft 100 kts 215°
2026-04-30 19:32 39.60891 2.46739 910 ft 92 kts 13°
2026-04-30 19:32 39.60904 2.47329 844 ft 92 kts 164°
2026-04-30 19:33 39.60623 2.46778 836 ft 97 kts 310°
2026-04-30 19:33 39.61198 2.46887 1074 ft 90 kts 33°
2026-04-30 19:33 39.61735 2.47294 1459 ft 84 kts 36°
2026-04-30 19:33 39.62249 2.47576 1896 ft 79 kts 22°
2026-04-30 19:34 39.62801 2.47633 2127 ft 82 kts
2026-04-30 19:34 39.63382 2.47686 2297 ft 86 kts 13°
2026-04-30 19:34 39.64509 2.48540 2532 ft 109 kts 68°
2026-04-30 19:35 39.64742 2.49522 2644 ft 123 kts 73°
2026-04-30 19:35 39.65043 2.50617 2639 ft 133 kts 72°
2026-04-30 19:35 39.65359 2.51780 2643 ft 140 kts 71°
2026-04-30 19:35 39.65927 2.52805 2636 ft 145 kts 45°
2026-04-30 19:36 39.66685 2.53674 2643 ft 147 kts 44°
2026-04-30 19:36 39.67450 2.54575 2644 ft 150 kts 44°
2026-04-30 19:36 39.68972 2.56368 2621 ft 141 kts 44°
2026-04-30 19:37 39.69677 2.57223 2637 ft 139 kts 44°
2026-04-30 19:37 39.70395 2.58068 2637 ft 138 kts 44°
2026-04-30 19:37 39.71150 2.58870 2635 ft 142 kts 40°
2026-04-30 19:37 39.71939 2.59658 2629 ft 143 kts 40°
2026-04-30 19:38 39.72715 2.60423 2629 ft 138 kts 39°
2026-04-30 19:38 39.73467 2.61190 2627 ft 138 kts 40°
2026-04-30 19:38 39.74227 2.61944 2632 ft 138 kts 40°
2026-04-30 19:38 39.74983 2.62685 2631 ft 135 kts 40°
2026-04-30 19:39 39.75710 2.63455 2640 ft 139 kts 43°
2026-04-30 19:39 39.76460 2.64293 2642 ft 144 kts 43°
2026-04-30 19:39 39.77222 2.65141 2644 ft 144 kts 43°
2026-04-30 19:39 39.77984 2.65988 2639 ft 145 kts 42°
2026-04-30 19:40 39.78703 2.66895 2636 ft 143 kts 48°
2026-04-30 19:40 39.79350 2.67884 2640 ft 145 kts 52°
2026-04-30 19:40 39.80000 2.68892 2637 ft 146 kts 52°
2026-04-30 19:40 39.80659 2.69900 2639 ft 147 kts 51°
2026-04-30 19:41 39.81315 2.70915 2630 ft 145 kts 52°
2026-04-30 19:41 39.81955 2.71905 2631 ft 141 kts 52°
2026-04-30 19:41 39.82584 2.72879 2633 ft 140 kts 52°
2026-04-30 19:41 39.83155 2.73911 2632 ft 140 kts 60°
2026-04-30 19:42 39.83654 2.74995 2633 ft 140 kts 62°
2026-04-30 19:42 39.84118 2.76110 2632 ft 140 kts 64°
2026-04-30 19:42 39.84572 2.77231 2629 ft 140 kts 64°
2026-04-30 19:42 39.84980 2.78379 2610 ft 141 kts 77°
2026-04-30 19:43 39.84947 2.79542 2245 ft 122 kts 103°
2026-04-30 19:43 39.84892 2.80534 2029 ft 102 kts 73°
2026-04-30 19:43 39.85414 2.81113 1729 ft 105 kts 15°
2026-04-30 19:44 39.86336 2.79996 1341 ft 96 kts 266°
2026-04-30 19:44 39.85922 2.79458 1181 ft 87 kts 181°
2026-04-30 19:44 39.85397 2.79683 1280 ft 81 kts 128°
2026-04-30 19:44 39.85415 2.80360 1387 ft 87 kts 50°
2026-04-30 19:45 39.85997 2.80303 1459 ft 99 kts 326°
2026-04-30 19:45 39.86615 2.80297 1454 ft 96 kts 51°
2026-04-30 19:45 39.86641 2.81099 1464 ft 99 kts 121°
2026-04-30 19:45 39.86007 2.81430 1472 ft 110 kts 185°
2026-04-30 19:46 39.85401 2.80804 1471 ft 120 kts 244°
2026-04-30 19:46 39.85447 2.79751 1463 ft 121 kts 302°
2026-04-30 19:46 39.86118 2.79187 1465 ft 116 kts 359°
2026-04-30 19:46 39.86799 2.79576 1454 ft 108 kts 56°
2026-04-30 19:47 39.86864 2.80490 1457 ft 107 kts 114°
2026-04-30 19:47 39.86537 2.80975 1461 ft 108 kts 135°
2026-04-30 19:47 39.85769 2.81816 1469 ft 109 kts 137°
2026-04-30 19:47 39.85203 2.82437 1643 ft 97 kts 136°
2026-04-30 19:48 39.84712 2.82939 1999 ft 87 kts 137°
2026-04-30 19:48 39.84287 2.83427 2353 ft 77 kts 122°
2026-04-30 19:48 39.83967 2.84011 2632 ft 86 kts 121°
2026-04-30 19:48 39.83620 2.84699 2885 ft 96 kts 121°
2026-04-30 19:49 39.83212 2.85512 2886 ft 122 kts 121°
2026-04-30 19:49 39.82189 2.87568 2881 ft 145 kts 122°
2026-04-30 19:49 39.81623 2.88671 2881 ft 147 kts 123°
2026-04-30 19:50 39.81029 2.89746 2877 ft 146 kts 124°
2026-04-30 19:50 39.80438 2.90821 2887 ft 145 kts 124°
2026-04-30 19:50 39.79970 2.91435 2886 ft 145 kts 140°
2026-04-30 19:50 39.79065 2.91991 2877 ft 148 kts 171°
2026-04-30 19:51 39.78025 2.92024 2883 ft 152 kts 178°
2026-04-30 19:51 39.76959 2.91945 2882 ft 154 kts 182°
2026-04-30 19:51 39.75949 2.91568 2870 ft 156 kts 215°
2026-04-30 19:51 39.75158 2.90608 2872 ft 155 kts 223°
2026-04-30 19:52 39.74376 2.89630 2863 ft 156 kts 223°
2026-04-30 19:52 39.73607 2.88640 2847 ft 157 kts 230°
2026-04-30 19:52 39.73094 2.87327 2599 ft 169 kts 247°
2026-04-30 19:52 39.72630 2.85891 2357 ft 174 kts 247°
2026-04-30 19:53 39.72163 2.84441 2109 ft 174 kts 247°
2026-04-30 19:53 39.71690 2.82984 1860 ft 175 kts 247°
2026-04-30 19:53 39.71201 2.81549 1611 ft 173 kts 242°
2026-04-30 19:53 39.70540 2.80253 1497 ft 167 kts 229°
2026-04-30 19:54 39.69722 2.79206 1498 ft 163 kts 221°
2026-04-30 19:54 39.68894 2.78232 1495 ft 162 kts 221°
2026-04-30 19:54 39.68061 2.77254 1496 ft 161 kts 221°
2026-04-30 19:54 39.67148 2.76493 1498 ft 157 kts 196°
2026-04-30 19:55 39.66085 2.76138 1503 ft 158 kts 193°
2026-04-30 19:55 39.65029 2.75697 1410 ft 163 kts 198°
2026-04-30 19:55 39.63971 2.75138 1291 ft 166 kts 201°
2026-04-30 19:55 39.62931 2.74476 1169 ft 166 kts 206°
2026-04-30 19:56 39.61911 2.73782 1046 ft 166 kts 206°
2026-04-30 19:56 39.60905 2.73102 1012 ft 159 kts 206°
2026-04-30 19:56 39.59936 2.72448 1010 ft 155 kts 207°
2026-04-30 19:56 39.59054 2.71877 989 ft 133 kts 194°
2026-04-30 19:57 39.58180 2.71871 989 ft 122 kts 161°
2026-04-30 19:57 39.57410 2.72264 1000 ft 119 kts 156°
2026-04-30 19:57 39.56628 2.72650 999 ft 122 kts 157°
2026-04-30 19:57 39.55846 2.73035 997 ft 118 kts 157°
2026-04-30 19:58 39.55188 2.73618 997 ft 114 kts 135°
2026-04-30 19:58 39.54615 2.74298 1025 ft 104 kts 134°
2026-04-30 19:58 39.54005 2.74701 1026 ft 100 kts 178°
2026-04-30 19:58 39.53461 2.74247 1021 ft 97 kts 240°
2026-04-30 19:59 39.53064 2.73607 1081 ft 89 kts 207°
2026-04-30 19:59 39.52455 2.73609 1046 ft 91 kts 143°
2026-04-30 19:59 39.52714 2.74728 1035 ft 92 kts
2026-04-30 20:00 39.53231 2.74236 1036 ft 102 kts 295°
2026-04-30 20:00 39.53111 2.73346 1035 ft 106 kts 230°
2026-04-30 20:00 39.52637 2.72653 1080 ft 100 kts 249°
2026-04-30 20:00 39.52744 2.71872 1004 ft 87 kts 318°
2026-04-30 20:01 39.53621 2.72061 523 ft 72 kts 66°
2026-04-30 20:01 39.53861 2.72624 292 ft 69 kts 60°
2026-04-30 20:01 39.54106 2.73184 392 ft 75 kts 71°
2026-04-30 20:02 39.53418 2.74133 845 ft 97 kts 182°
2026-04-30 20:02 39.52978 2.73533 941 ft 96 kts 249°
2026-04-30 20:03 39.53062 2.72217 767 ft 87 kts
2026-04-30 20:03 39.53615 2.72466 362 ft 83 kts 35°
2026-04-30 20:03 39.53995 2.72952 124 ft 72 kts 54°
2026-04-30 20:03 39.54251 2.73448 41 ft 59 kts 59°
2026-04-30 20:04 39.54405 2.73761 29 ft 17 kts 33°
2026-04-30 20:04 39.54493 2.73717 30 ft 5 kts 329°
2026-04-30 20:04 39.54494 2.73716 30 ft 0 kts 329°
2026-04-30 20:05 39.54510 2.73706 30 ft 10 kts 336°
2026-04-30 20:06 39.54533 2.73583 31 ft 22 kts 239°
2026-04-30 20:06 39.54446 2.73400 32 ft 25 kts 239°
2026-04-30 20:06 39.54355 2.73209 33 ft 25 kts 237°
2026-04-30 20:06 39.54262 2.73017 34 ft 25 kts 240°
2026-04-30 20:07 39.54230 2.72854 34 ft 16 kts 323°
2026-04-30 20:07 39.54327 2.72785 33 ft 10 kts
2026-04-30 20:07 39.54336 2.72793 33 ft 0 kts 53°